Weather History for KNDZ - October, 2013

Change the Weather History Date:

Wednesday, October 9, 2013

  Actual Average (KNSE) Record (KNSE)
Temperature  
Mean Temperature 71 °F -  
Max Temperature 79 °F 78 °F 89 °F (1997)
Min Temperature 64 °F 59 °F 53 °F (1998)
Cooling Degree Days 6    
Growing Degree Days 21 (Base 50)    
Moisture  
Dew Point 63 °F    
Average Humidity 81    
Maximum Humidity 90    
Minimum Humidity 64    
Precipitation  
Precipitation 0.00 in - - ()
Sea Level Pressure  
Sea Level Pressure 30.05 in    
Wind  
Wind Speed 8 mph (ENE)    
Max Wind Speed 10 mph    
Max Gust Speed -    
Visibility 10 miles    
Events      
Averages and records for this station are not official NWS values.
T = Trace of Precipitation, MM = Missing Value Source: NWS Daily Summary

Daily Weather History Graph

Daily Weather History Graph

Search for Another Location

Airport or City:

Trip Planner

Search our weather history database for the weather conditions in past years. The results will help you decide how hot, cold, wet, or windy it might be!

Date:

Astronomy

Oct. 09, 2013 Rise Set
Actual Time 6:46 AM CDT 6:23 PM CDT
Civil Twilight 6:22 AM CDT 6:47 PM CDT
Nautical Twilight 5:54 AM CDT 7:15 PM CDT
Astronomical Twilight 5:26 AM CDT 7:43 PM CDT
Moon 11:26 AM CDT (10/9) 10:12 PM CDT (10/9)
Length of Visible Light 12h 24m
Length of Day
11h 36m
Waxing Crescent, 25% of the Moon is Illuminated
Oct 9
Waxing Crescent
Oct 11
First Quarter
Oct 18
Full
Oct 26
Last Quarter
Nov 3
New

Hourly Weather History & Observations

Time (CDT) Temp. Dew Point Humidity Pressure Visibility Wind Dir Wind Speed Gust Speed Precip Events Conditions
12:56 AM 71.1 °F 66.0 °F 84% 29.97 in 10.0 mi ENE 6.9 mph - N/A   Mostly Cloudy
1:56 AM 69.1 °F 64.9 °F 87% 29.98 in 10.0 mi ENE 8.1 mph - N/A   Clear
2:56 AM 68.0 °F 64.0 °F 87% 29.97 in 10.0 mi ENE 8.1 mph - N/A   Clear
3:56 AM 66.9 °F 63.0 °F 87% 29.97 in 10.0 mi ENE 9.2 mph - N/A   Clear
4:56 AM 66.0 °F 62.1 °F 87% 29.99 in 10.0 mi ENE 6.9 mph - N/A   Clear
5:56 AM 64.9 °F 61.0 °F 87% 30.00 in 10.0 mi ENE 9.2 mph - N/A   Clear
6:56 AM 64.0 °F 61.0 °F 90% 30.02 in 10.0 mi ENE 9.2 mph - N/A   Scattered Clouds
7:48 AM 64.4 °F 60.8 °F 88% 30.08 in 10.0 mi ENE 10.4 mph - N/A   Mostly Cloudy
7:56 AM 64.9 °F 61.0 °F 87% 30.04 in 10.0 mi ENE 9.2 mph - N/A   Overcast
8:21 AM 64.4 °F 60.8 °F 88% 30.09 in 10.0 mi East 9.2 mph - N/A   Overcast
8:56 AM 66.0 °F 61.0 °F 84% 30.07 in 10.0 mi East 6.9 mph - N/A   Overcast
9:56 AM 66.9 °F 61.0 °F 81% 30.08 in 10.0 mi ENE 10.4 mph - N/A   Overcast
10:56 AM 68.0 °F 62.1 °F 81% 30.09 in 10.0 mi ENE 8.1 mph - N/A   Overcast
11:45 AM 69.8 °F 62.6 °F 78% 30.13 in 10.0 mi ENE 9.2 mph - N/A   Overcast
11:56 AM 70.0 °F 62.1 °F 76% 30.09 in 10.0 mi ENE 9.2 mph - N/A   Overcast
12:56 PM 73.0 °F 63.0 °F 71% 30.06 in 10.0 mi ENE 6.9 mph - N/A   Mostly Cloudy
1:13 PM 75.2 °F 64.4 °F 69% 30.09 in 10.0 mi NE 5.8 mph - N/A   Mostly Cloudy
1:22 PM 73.4 °F 62.6 °F 69% 30.09 in 10.0 mi NE 8.1 mph - N/A   Mostly Cloudy
1:56 PM 75.9 °F 64.0 °F 67% 30.04 in 10.0 mi NNE 9.2 mph - N/A   Mostly Cloudy
2:56 PM 77.0 °F 64.9 °F 66% 30.03 in 10.0 mi ENE 8.1 mph - N/A   Scattered Clouds
3:56 PM 78.1 °F 64.9 °F 64% 30.02 in 10.0 mi East 4.6 mph - N/A   Scattered Clouds
4:56 PM 75.9 °F 64.9 °F 69% 30.02 in 10.0 mi ENE 5.8 mph - N/A   Scattered Clouds
5:56 PM 73.9 °F 64.9 °F 73% 30.07 in 10.0 mi East 6.9 mph - N/A   Mostly Cloudy
6:56 PM 70.0 °F 64.0 °F 81% 30.04 in 10.0 mi ENE 8.1 mph - N/A   Scattered Clouds
7:56 PM 68.0 °F 63.0 °F 84% 30.04 in 10.0 mi NE 6.9 mph - N/A   Partly Cloudy
8:56 PM 66.9 °F 63.0 °F 87% 30.06 in 10.0 mi NE 8.1 mph - N/A   Partly Cloudy
9:28 PM 66.2 °F 62.6 °F 88% 30.10 in 10.0 mi ENE 5.8 mph - N/A   Mostly Cloudy
9:56 PM 66.9 °F 62.1 °F 84% 30.07 in 10.0 mi ENE 8.1 mph - N/A   Mostly Cloudy
10:56 PM 66.0 °F 62.1 °F 87% 30.06 in 10.0 mi NNE 3.5 mph - N/A   Scattered Clouds
11:56 PM 64.9 °F 62.1 °F 90% 30.05 in 10.0 mi NNE 3.5 mph - N/A   Partly Cloudy